Showing default

LEMUR 2 GREENBERG, 42837

Orbit data source: Space-Track

LEMUR 2 GREENBERG, 42837 is a payload satellite owned by Spire (US) in SSO that was launched on Fri, 14 Jul 2017 UTC via a SOYUZ-2-1A launch vehicle from the Tyuratam Missile And Space Complex (TTMTR). Payload-class satellites include a variety of spacecraft equipped with specific instruments for various scientific and technological missions. These include communications satellites like Starlink; space stations such as the ISS; scientific satellites like the Hubble; Earth observation satellites from companies like Planet Labs, Umbra, and HawkEye 360; GPS; miniature CubeSats for education and research; and military/defense satellites.

Loading next visibility...
Identifier
42837, 2017-042N
Orbit
SSO
Country
Flag of USUS
Related business
Manufacturer
Spire/Glasgow
Mission
Operational Commercial Com/MetRO
Bus & Motor
CUBESAT 3U, Unknown motor
Mass
4 kg wet, 4 kg dry
Launch date (UTC)
2017-07-14 (9 years ago)
Launch vehicle
SOYUZ-2-1A
Launch site
Tyuratam Missile And Space Complex (TTMTR)
Object type
Payload
Rocket body
Debris
Shape & HBR
Box, 0.4 m
Radar Cross Section
0.093 m², Medium (>0.1 m² and < 1m²)

Expand to show TLE details & history
Last TLE update: 1 day ago

TLE from 1 day ago
0 LEMUR 2 GREENBERG
1 42837U 17042N   26263.47059407  .00012427  00000-0  37910-3 0  9992
2 42837  97.3864  83.8880 0008703  31.9928 328.1841 15.34039864502982
Epoch: 2026-09-20T11:17Z
TLE epoch observation values (Epoch: 2026-09-20T11:17:39.327Z)
Latitude
-0.00009°
Longitude
-84.89016°
Altitude
461.824 km
Speed
7.639 km/s
True Right ascension
05h 35m 33s
True Declination
0° 00' 00"
Sunlit
Object was in daylight at epoch
Visualization orbit readout
Latitude
Unknown
Longitude
Unknown
Altitude
Unknown
Speed
Unknown
Apparent Right ascension
Unknown
Apparent Declination
Unknown
Sunlit
N/A
Visualization observer readout
Local Sidereal Time
06:01:39
Azimuth
Unknown
Elevation
Unknown
Doppler factor
Unknown
Orbital elements
Apogee altitude
466.672 km
Perigee altitude
454.768 km
Semi-major axis
6,838.857 km
Eccentricity
0.00087
Inclination
97.3864°
RAAN
83.888°
Arg. of periapsis
31.9928°
True anomaly
328.13148°
Mean anomaly
328.1841°
Eccentric anomaly
328.15779°
Mean motion
3.83767 °/min
Orbital period
93.81 mins
BSTAR
0.0003791
Loading maneuver chart data...
Computing Atmospheric mass density...
Loading historical data...
Loading historical data...
Loading historical data...
Loading historical data...
Loading historical data...
Loading historical data...
Loading historical data...

Documentation

Showing up to 5 results
|